Moosic, PA

6:56 AM EDT on August 28, 2016 (GMT -0400)
Wilkes-Barre-Scranton International

Weather History for KAVP - October, 2012

Change the Weather History Date:

Tuesday, October 16, 2012

  Actual Average Record
Temperature  
Mean Temperature 47 °F 51 °F  
Max Temperature 55 °F 61 °F 84 °F (1947)
Min Temperature 38 °F 41 °F 28 °F (1944)
Degree Days  
Heating Degree Days 18 14  
Month to date heating degree days 183 189  
Since 1 July heating degree days 300 351  
Cooling Degree Days 0 0  
Month to date cooling degree days 3 0  
Year to date cooling degree days 864 576  
Moisture  
Dew Point 35 °F    
Average Humidity 62    
Maximum Humidity 79    
Minimum Humidity 45    
Precipitation  
Precipitation T in 0.10 in 1.73 in (2002)
Month to date precipitation 1.13 1.83  
Year to date precipitation 28.48 30.93  
Sea Level Pressure  
Sea Level Pressure 29.84 in    
Wind  
Wind Speed 8 mph (NW)    
Max Wind Speed 20 mph    
Max Gust Speed 26 mph    
Visibility 10 miles    
Events      
T = Trace of Precipitation, MM = Missing Value Source: NWS Daily Summary

Daily Weather History Graph

Daily Weather History Graph

Search for Another Location

Airport or City:

Trip Planner

Search our weather history database for the weather conditions in past years. The results will help you decide how hot, cold, wet, or windy it might be!

Date:

Astronomy

Oct. 16, 2012 Rise Set
Actual Time 7:16 AM EDT 6:19 PM EDT
Civil Twilight 6:48 AM EDT 6:47 PM EDT
Nautical Twilight 6:16 AM EDT 7:19 PM EDT
Astronomical Twilight 5:44 AM EDT 7:51 PM EDT
Moon 8:37 AM EDT (10/16) 7:00 PM EDT (10/16)
Length of Visible Light 11h 59m
Length of Day
11h 03m
New Moon, 2% of the Moon is Illuminated
Oct 16
New Moon
Oct 21
First Quarter
Oct 29
Full
Nov 6
Last Quarter
Nov 13
New

Hourly Weather History & Observations

Time (EDT) Temp. Windchill Dew Point Humidity Pressure Visibility Wind Dir Wind Speed Gust Speed Precip Events Conditions
12:54 AM 51.1 °F - 42.1 °F 71% 29.74 in 10.0 mi SW 3.5 mph - N/A   Overcast
1:54 AM 52.0 °F - 39.0 °F 61% 29.75 in 10.0 mi WNW 6.9 mph - N/A   Overcast
2:54 AM 51.1 °F - 37.9 °F 61% 29.75 in 10.0 mi WNW 6.9 mph - N/A   Overcast
3:54 AM 50.0 °F - 35.1 °F 57% 29.75 in 10.0 mi NW 11.5 mph - N/A   Overcast
4:54 AM 48.0 °F - 34.0 °F 58% 29.77 in 10.0 mi North 9.2 mph - N/A   Overcast
5:54 AM 48.0 °F - 34.0 °F 58% 29.80 in 10.0 mi NW 8.1 mph 18.4 mph N/A   Overcast
6:54 AM 46.9 °F - 34.0 °F 61% 29.81 in 10.0 mi NNW 10.4 mph 21.9 mph N/A   Overcast
7:54 AM 46.0 °F 40.6 °F 34.0 °F 63% 29.84 in 10.0 mi NW 11.5 mph - N/A   Overcast
8:54 AM 46.0 °F 41.0 °F 34.0 °F 63% 29.86 in 10.0 mi NNW 10.4 mph 23.0 mph N/A   Overcast
9:54 AM 46.9 °F - 34.0 °F 61% 29.88 in 10.0 mi WNW 12.7 mph - N/A   Overcast
10:54 AM 46.9 °F - 35.1 °F 63% 29.88 in 10.0 mi NW 11.5 mph - 0.00 in   Overcast
11:54 AM 48.0 °F - 35.1 °F 61% 29.89 in 10.0 mi NW 11.5 mph 18.4 mph N/A   Overcast
12:54 PM 50.0 °F - 35.1 °F 57% 29.87 in 10.0 mi NW 5.8 mph - N/A   Overcast
1:54 PM 52.0 °F - 35.1 °F 53% 29.86 in 10.0 mi NNW 15.0 mph - N/A   Partly Cloudy
2:54 PM 54.0 °F - 34.0 °F 47% 29.84 in 10.0 mi NW 11.5 mph - N/A   Partly Cloudy
3:54 PM 54.0 °F - 33.1 °F 45% 29.84 in 10.0 mi NW 10.4 mph 18.4 mph N/A   Clear
4:54 PM 54.0 °F - 32.0 °F 43% 29.84 in 10.0 mi NW 10.4 mph - N/A   Clear
5:54 PM 52.0 °F - 32.0 °F 47% 29.84 in 10.0 mi NW 12.7 mph - N/A   Clear
6:54 PM 48.9 °F - 33.1 °F 54% 29.85 in 10.0 mi Calm Calm - N/A   Clear
7:54 PM 43.0 °F - 35.1 °F 74% 29.87 in 10.0 mi Calm Calm - N/A   Clear
8:54 PM 44.1 °F 41.5 °F 34.0 °F 68% 29.90 in 10.0 mi ESE 4.6 mph - N/A   Clear
9:54 PM 42.1 °F 39.2 °F 34.0 °F 73% 29.91 in 10.0 mi ESE 4.6 mph - N/A   Clear
10:54 PM 39.9 °F 35.8 °F 33.1 °F 77% 29.94 in 10.0 mi East 5.8 mph - N/A   Clear
11:54 PM 39.0 °F 34.0 °F 33.1 °F 79% 29.94 in 10.0 mi East 6.9 mph - N/A   Clear